Regional Weather Roundup
Issued by NWS Sterling, VA

Home | Current Version | Previous Version | Text Only | Print | Product List | Glossary Off
Versions: 1 2 3 4 5 6 7 8 9 10 11 12 13 14 15 16 17 18 19 20 21 22 23 24 25 26 27 28 29 30 31 32 33 34 35 36 37 38 39 40 41 42 43 44 45 46 47 48 49 50

000
ASUS41 KLWX 171310
RWRLWX

REGIONAL WEATHER ROUNDUP
NATIONAL WEATHER SERVICE BALTIMORE MD/WASHINGTON DC
800 AM EST WED DEC 17 2014

Note: "FAIR" indicates few or no clouds below 12,000 feet
with no significant weather and/or obstructions to visibility.
 TC=TEMPERATURE CELSIUS

 * =Non NWS site. Station does not report precipitation (e.g. rain,
    snow, etc.), thunder, or fog.

DCZ001-MDZ009-015-VAZ040>042-051-053>054-171400-
WASHINGTON METRO

CITY           SKY/WX    TMP DP  RH WIND       PRES   REMARKS
WASHINGTON NAT PTCLDY    46  37  71 W6        29.98R
DULLES         PTCLDY    34  33  96 S5        29.98R
ANDREWS AFB    CLEAR     39  38  98 SW5       29.96R
FT BELVOIR     CLEAR     38  37  97 NW3       29.99R
QUANTICO       FOG       39  37  92 SW7       30.01R VSB 3/4
COLLEGE PARK*    N/A     34  34 100 CALM      29.96S VSB 1
LEESBURG*      CLOUDY    46  41  81 MISG      29.99R
GAITHERSBURG*  CLEAR     39  37  93 W6        29.99R

$$

MDZ006>007-011-014-171400-
BALTIMORE METRO

CITY           SKY/WX    TMP DP  RH WIND       PRES   REMARKS
BWI AIRPORT    PTCLDY    37  36  96 S3        29.95R
MD SCIENCE CTR   N/A     38  38 100 MISG      29.95R
ANNAPOLIS      CLEAR     40  38  93 CALM      29.96R FOG
FORT MEADE*      N/A     32  32 100 CALM      29.98R VSB 3/4

$$

MDZ012-015-019>023-171400-
MARYLAND EASTERN SHORE

CITY           SKY/WX    TMP DP  RH WIND       PRES   REMARKS
OCEAN CITY     CLEAR     43  40  89 NW6       29.96R
SALISBURY      CLEAR     44  40  85 W6        29.97R
BAY BRIDGE AP*   N/A     41  39  93 W5        29.97R
CAMBRIDGE*     CLEAR     43  37  81 W3        29.96R
EASTON*        CLEAR     41  41 100 W5        30.00R

$$

MDZ017>025-171400-
SOUTHERN MARYLAND

CITY           SKY/WX    TMP DP  RH WIND       PRES   REMARKS
PATUXENT RIVER FOG       41  39  93 SW5       29.99R VSB 1/2
ST INIGOES     FOG       43  40  89 W7        29.99R VSB 1/2
LEONARDTOWN*   CLOUDY    41  39  93 SW6       30.00R VSB 1/4

$$

MDZ003>005-171400-
NORTH CENTRAL MARYLAND

CITY           SKY/WX    TMP DP  RH WIND       PRES   REMARKS
FREDERICK*     CLEAR     46  36  66 W16       29.98R
HAGERSTOWN APT CLOUDY    46  37  71 SW6       29.95R
WESTMINSTER*   PTCLDY    43  37  81 W7        29.93R

$$

MDZ501>502-171400-
WESTERN MARYLAND

CITY           SKY/WX    TMP DP  RH WIND       PRES   REMARKS
OAKLAND*       FOG       32 N/A N/A W16G24    29.96R VSB 1   WCI  21
CUMBERLAND*    CLOUDY    45  34  65 W14G21    30.03R

$$

VAZ025>031-171400-
SHENANDOAH VALLEY

CITY           SKY/WX    TMP DP  RH WIND       PRES   REMARKS
WINCHESTER*    CLOUDY    46  32  57 W5        29.98R
FRONT ROYAL*   CLOUDY    41  36  81 CALM      29.97R
LURAY*         CLOUDY    48  36  61 SW7       29.98R
NEW MARKET*    CLOUDY    39  36  89 CALM      29.99R
STAUNTON*      CLOUDY    38  34  84 CALM      30.01R
WAYNESBORO*    PTSUNNY   43  33  68 SW6       30.00R

$$

WVZ021-048>050-054>055-171400-
EASTERN WEST VIRGINIA PANHANDLE

CITY           SKY/WX    TMP DP  RH WIND       PRES   REMARKS
MARTINSBURG    CLOUDY    47  35  63 NW5       29.98R
PETERSBURG*    CLEAR     44  32  62 W8G17     30.00R

$$

VAZ036>039-050-171400-
CENTRAL FOOTHILLS

CITY           SKY/WX    TMP DP  RH WIND       PRES   REMARKS
CHARLOTTESVILL PTCLDY    43  35  73 S6        29.99R
CULPEPER*      CLEAR     34  34 100 CALM      30.00R FOG
ORANGE*        MOCLDY    36  36 100 SW3       30.01R
GORDONSVILLE*  FAIR      35  35  99 MISG      30.00R
WARRENTON*     FOG       36  36 100 CALM      29.99R VSB<1/4

$$

VAZ055>057-171400-
NORTH AND CENTRAL PIEDMONT

CITY           SKY/WX    TMP DP  RH WIND       PRES   REMARKS
FREDERICKSBRG* FOG       40  40 100 CALM      30.00R VSB 1/4
STAFFORD*      FOG       37  37 100 CALM      30.04R VSB<1/4

$$

NCZ024-NYZ072-PAZ021-071-VAZ022-071-171400-
OTHER REGIONAL OBSERVATIONS

CITY           SKY/WX    TMP DP  RH WIND       PRES   REMARKS
NEW YORK CITY  MOCLDY    45  41  86 CALM      29.86R
PHILADELPHIA   PTCLDY    41  38  89 W9        29.91S FOG
PITTSBURGH     DRIZZLE   36  32  85 W15G26    30.02R WCI  27
ROANOKE        MOCLDY    46  32  58 NW16G29   30.07R
RICHMOND       PTCLDY    44  38  79 W6        30.01R
RALEIGH        PTCLDY    41  35  79 SW3       30.09R

$$

ANZ530>537-171400-
MARINE OBSERVATIONS

STATION/POSITION TIME  TEMP    WIND        PRES
                       AIR SEA DIR/SP/G
                 (UTC) (F)     (DEG/KT/KT) (MB)
THOMAS PT LIGHT  1300   43 42  230/  5/  6 1015.9R
BALT KEY BRIDGE  1300   42     210/  9/ 10 1014.0R
COVE POINT       1300   43     240/  3/  5 1015.2R
LEWISETTA        1300   42 44  260/  6/  6 1015.6R
SOLOMONS ISLAND  1300      44                N/A
PINEY POINT      1300          280/  6/  7   N/A

$$



USA.gov is the U.S. government's official web portal to all federal, state and local government web resources and services.